COSMOS 1929

Satellite information

Favourite Embed

Satellite Type and Status

PAYLOADIN ORBIT

Key statistics

Satellite COSMOS 1929 at a glance.

Uptime

13751

Days in orbit

Revolutions

≈ 12.5

Per day

Orbit

LEO

Low Earth Orbit

Inclination

74.0

Latest

Satellite identification and parameters

Extended collection of information and parameters for COSMOS 1929.

Object identification

Identified? True

Debris? False

Object name: COSMOS 1929

International designator: 1988-016F

Object number (NORAD): 18942

Object ID (CCSDS): 18942

Country: COMMONWEALTH OF INDEPENDENT STATES (CIS)

Current information (Y/N): Y

RCS size: MEDIUM

Orbital parameters

Period: 114.759 minutes

Inclination: 74.0045 deg

SMA: 7822.602 km

Apoapsis: 1459.918 km

Periapsis: 1429.017 km

RAAN: 80.7296 deg

Eccentricy: 0.0019751

Argument of periapsis: 145.4992 deg

Mean anomaly: 283.3707 deg

Mean motion: 12.54803979 rev/day

Mean motion (dot): -0.00000013 rev/day2

B* drag term: 0.000018399 1/REarth

Two-line elements (TLE)

Creation date: Nov. 2, 2025, 4:06 p.m.

Reference frame: TEME

Reference center: EARTH

Epoch: Nov. 2, 2025, 11:43 a.m. UTC

TLE line 0: 0 COSMOS 1929

TLE line 1: 1 18942U 88016F 25306.48868436 -.00000013 00000-0 18399-4 0 9999

TLE line 2: 2 18942 74.0045 80.7296 0019751 145.4992 283.3707 12.54803979724455

Live tracking on map

Real-time ground track for satellite COSMOS 1929.

In-orbit conjunctions

There are no conjunctions computed for COSMOS 1929, at the moment. Check back to stay up to date, as we update our databases every day.

Go to all conjunctions

Associated space launch

Military communications satellites

COSMOS 1929 was lifted into orbit during the mission ‘Kosmos-3M | Strela-1M 329-336’, on board a Kosmos-3M space rocket.

The launch took place on March 11, 1988, 12:18 a.m. from 132/1 (132L).

For more information about the launch, click the button.

Launch to space Kosmos-3M | Strela-1M 329-336
Kosmos-3M | Strela-1M 329-336

Agency: N/A

Status: Launch Successful

Launch date: March 11, 1988, 12:18 a.m. UTC

Rocket: Kosmos-3M

Launch pad: 132/1 (132L)

Location: Plesetsk Cosmodrome, Russian Federation

...

Latest news about this satellite

There are no fresh news available about this satellite. Check back as we update our databases every day.


Newsletter sign-up

Weekly statistics, charts and insights to help you stay on top of the space industry.